Location: Newark
(34.9500°N, 139.9667°E)
Time: 06:10:14
(UTC+00:00)

deb Explorer IX - Pass Details

Date: 10 December 2019
Orbit: 548 x 1101 km, 38.8° (Epoch: 20 January)

Event Time Altitude Azimuth Distance (km) Brightness Sun altitude
Rises 07:50:49 0° 258° (WSW) 3,325 ? -4.9°
Reaches altitude 10° 07:53:10 10° 260° (W) 2,476 ? -5.3°
Maximum altitude 07:59:09 76° 346° (NNW) 979 ? -6.5°
Drops below altitude 10° 08:06:05 10° 72° (ENE) 2,843 ? -7.8°
Enters shadow 08:06:21 - 72° (ENE) 2,935 ? -7.8°
